Tracking 17925 objects as of 21-January-2017
HD Live streaming from Space Station
objects crossing your sky now

CHINASAT 5B (SINOSAT 1)

Track CHINASAT 5B (SINOSAT 1) now!
CHINASAT 5B (SINOSAT 1) is classified as:


NORAD ID: 25404
Int'l Code: 1998-044A
Perigee: 36,043.9 km
Apogee: 36,164.1 km
Inclination: 4.1 °
Period: 1,452.0 minutes
Semi major axis: 42475 km
RCS: 25.1188 m2 (large)
Launch date: July 18, 1998
Source: People's Republic of China (PRC)
Launch site: Xichang Space Center, China (XSC)

11 C-band, broadcasting, business services, direct-to-home TV broadcasting, telecommunications, VSAT networks; Asia Pacific region.
Your satellite tracking list
Your tracking list is empty





NASA's NSSDC Master Catalog

Two Line Element Set (TLE):
1 25404U 98044A   17021.64189236  .00000030  00000-0  00000+0 0  9992
2 25404   4.1363  66.7111 0014155 177.3423 187.8395  0.99175107 67844
Source of the keplerian elements: AFSPC